sat.trackr.live / text

‹ back to catalog

STARLINK-2591

NORAD 48361 · 2021-038J

PAYLOAD ACTIVE UNKNOWN

§ Identity

Operator
Country
US
Launch date
2021-05-04
Launch site
AFETR
Launch vehicle
Mass (kg)
RCS (m²)

Purposes: comms

External: N2YO · Heavens-Above · Gunter

§ Orbital elements

Epoch: 2026-05-24T23:51:30.855168Z

Period
94.01 min
Inclination
53.1621°
Eccentricity
0.0001156
Mean motion
15.31711205 rev/d
Perigee alt
469.9 km
Apogee alt
471.5 km
Semi-major
6,848.8 km
B*
5.9145e-5
RAAN
3.2528°
Arg perigee
90.3296°
Mean anomaly
269.7838°
Rev number
27,876

§ Raw data

STARLINK-25911 48361U 21038J   26144.99410712  .00001471  00000+0  59145-4 0  99962 48361  53.1621   3.2528 0001156  90.3296 269.7838 15.31711205278763

JSON: /api/v1/satellites/48361 · /tle

For live sub-satellite position, see the globe view (requires WebGL).

§ Visibility from observer

Set your observer location to see the next 7 days of passes ≥ 10°. The values pass through the URL so the page stays shareable.

No JS? Fill the form by hand. The geolocation button needs JavaScript.